SIA212R YSSY-WSSS

Flight info

Callsign SIA212R
Flight time N/A
Altitude 34000
Route RIC H226 ENPAG T74 NONET/N0492F360 T74 TN A464 KIKEM/N0488F380 M774 OBDOS T22 UGEBO UGEBO1B
Aircraft B77W/H-SDE1E2E3FGHIJ4J5M1P2RWXYZ/LB1D1

Departure

Time N/A
Airport Sydney Kingsford Smith International Airport (YSSY)

Arrival

Time 2026-05-04 23:40
Airport Singapore Changi Airport (WSSS)
Time Latitude Longitude Altitude Speed Heading
2026-05-04 23:00 0.18814 107.27554 37847 ft 495 kts 305°
2026-05-04 23:00 0.20388 107.25188 37847 ft 496 kts 305°
2026-05-04 23:01 0.24228 107.19415 37847 ft 495 kts 305°
2026-05-04 23:01 0.28042 107.13683 37847 ft 495 kts 305°
2026-05-04 23:02 0.31838 107.07976 37847 ft 495 kts 305°
2026-05-04 23:02 0.35683 107.02197 37848 ft 495 kts 304°
2026-05-04 23:03 0.40008 106.95463 37845 ft 495 kts 297°
2026-05-04 23:03 0.42020 106.90101 37846 ft 496 kts 283°
2026-05-04 23:04 0.43140 106.83328 37847 ft 495 kts 278°
2026-05-04 23:04 0.44133 106.76495 37846 ft 495 kts 278°
2026-05-04 23:05 0.45117 106.69697 37852 ft 496 kts 278°
2026-05-04 23:05 0.46103 106.62873 37852 ft 496 kts 278°
2026-05-04 23:06 0.47082 106.56091 37852 ft 496 kts 278°
2026-05-04 23:06 0.48066 106.49277 37850 ft 496 kts 278°
2026-05-04 23:07 0.49053 106.42432 37851 ft 496 kts 278°
2026-05-04 23:07 0.50034 106.35635 37850 ft 495 kts 278°
2026-05-04 23:08 0.51023 106.28777 37846 ft 494 kts 278°
2026-05-04 23:08 0.52004 106.21976 37847 ft 494 kts 278°
2026-05-04 23:09 0.52984 106.15180 37848 ft 495 kts 278°
2026-05-04 23:09 0.53964 106.08385 37848 ft 495 kts 278°
2026-05-04 23:10 0.54940 106.01611 37849 ft 496 kts 278°
2026-05-04 23:10 0.55924 105.94788 37848 ft 495 kts 278°
2026-05-04 23:11 0.56905 105.87981 37850 ft 494 kts 278°
2026-05-04 23:11 0.57882 105.81207 37852 ft 494 kts 278°
2026-05-04 23:12 0.58861 105.74412 37840 ft 492 kts 278°
2026-05-04 23:12 0.59344 105.71064 37286 ft 487 kts 278°
2026-05-04 23:12 0.59828 105.67707 36265 ft 490 kts 278°
2026-05-04 23:13 0.60318 105.64315 35430 ft 489 kts 278°
2026-05-04 23:13 0.60799 105.60980 34631 ft 488 kts 278°
2026-05-04 23:13 0.61288 105.57584 33764 ft 487 kts 278°
2026-05-04 23:13 0.61766 105.54266 32922 ft 494 kts 278°
2026-05-04 23:14 0.62302 105.50803 32027 ft 515 kts 282°
2026-05-04 23:14 0.63257 105.47354 31086 ft 519 kts 290°
2026-05-04 23:14 0.64716 105.44081 30294 ft 514 kts 299°
2026-05-04 23:14 0.66640 105.41094 29803 ft 503 kts 308°
2026-05-04 23:15 0.68923 105.38483 29208 ft 495 kts 316°
2026-05-04 23:15 0.71498 105.36279 28593 ft 487 kts 325°
2026-05-04 23:15 0.74353 105.34467 28012 ft 479 kts 333°
2026-05-04 23:15 0.77292 105.32905 27424 ft 474 kts 334°
2026-05-04 23:16 0.80209 105.31360 26826 ft 469 kts 333°
2026-05-04 23:16 0.83063 105.29828 26230 ft 464 kts 333°
2026-05-04 23:16 0.85900 105.28287 25623 ft 460 kts 333°
2026-05-04 23:16 0.88689 105.26759 25030 ft 455 kts 333°
2026-05-04 23:17 0.91448 105.25238 24428 ft 451 kts 333°
2026-05-04 23:17 0.94180 105.23724 23829 ft 447 kts 332°
2026-05-04 23:17 0.96884 105.22221 23237 ft 443 kts 332°
2026-05-04 23:17 0.99597 105.20709 22624 ft 439 kts 332°
2026-05-04 23:18 1.02244 105.19231 22033 ft 436 kts 332°
2026-05-04 23:18 1.04877 105.17758 21440 ft 433 kts 332°
2026-05-04 23:18 1.07552 105.16260 20813 ft 430 kts 332°
2026-05-04 23:18 1.10107 105.14762 20206 ft 428 kts 327°
2026-05-04 23:19 1.12448 105.12860 19579 ft 427 kts 317°
2026-05-04 23:19 1.14366 105.10635 18966 ft 426 kts 307°
2026-05-04 23:19 1.15869 105.08102 18352 ft 425 kts 297°
2026-05-04 23:19 1.16910 105.05338 17719 ft 423 kts 286°
2026-05-04 23:20 1.17446 105.02471 17115 ft 421 kts 276°
2026-05-04 23:20 1.17517 104.99588 16944 ft 406 kts 270°
2026-05-04 23:20 1.17485 104.96858 16852 ft 390 kts 270°
2026-05-04 23:20 1.17446 104.94212 16711 ft 376 kts 270°
2026-05-04 23:21 1.17404 104.91650 16559 ft 363 kts 270°
2026-05-04 23:21 1.17361 104.89133 16404 ft 351 kts 270°
2026-05-04 23:21 1.17318 104.86751 16254 ft 341 kts 269°
2026-05-04 23:21 1.17273 104.84408 16104 ft 330 kts 269°
2026-05-04 23:22 1.17227 104.82133 15965 ft 320 kts 269°
2026-05-04 23:22 1.17181 104.79950 15823 ft 310 kts 269°
2026-05-04 23:22 1.17129 104.77813 15524 ft 307 kts 269°
2026-05-04 23:22 1.17074 104.75687 15176 ft 306 kts 269°
2026-05-04 23:23 1.17020 104.73579 14853 ft 304 kts 269°
2026-05-04 23:23 1.16966 104.71457 14533 ft 302 kts 269°
2026-05-04 23:23 1.16914 104.69379 14234 ft 299 kts 269°
2026-05-04 23:23 1.16862 104.67332 13938 ft 297 kts 269°
2026-05-04 23:24 1.16810 104.65254 13625 ft 295 kts 269°
2026-05-04 23:24 1.16759 104.63236 13327 ft 292 kts 269°
2026-05-04 23:24 1.16708 104.61217 13027 ft 290 kts 269°
2026-05-04 23:24 1.16657 104.59193 12734 ft 288 kts 269°
2026-05-04 23:25 1.16606 104.57201 12444 ft 285 kts 269°
2026-05-04 23:25 1.16557 104.55228 12145 ft 283 kts 269°
2026-05-04 23:25 1.16507 104.53258 11863 ft 280 kts 269°
2026-05-04 23:25 1.16458 104.51331 11582 ft 278 kts 269°
2026-05-04 23:26 1.16410 104.49404 11299 ft 276 kts 268°
2026-05-04 23:26 1.16361 104.47497 11010 ft 274 kts 268°
2026-05-04 23:26 1.16314 104.45611 10765 ft 270 kts 268°
2026-05-04 23:26 1.16266 104.43739 10540 ft 270 kts 268°
2026-05-04 23:27 1.16219 104.41873 10299 ft 270 kts 268°
2026-05-04 23:27 1.16171 104.40002 10032 ft 268 kts 268°
2026-05-04 23:27 1.16068 104.38152 9738 ft 267 kts 264°
2026-05-04 23:27 1.15892 104.36315 9421 ft 267 kts 264°
2026-05-04 23:28 1.15722 104.34448 9108 ft 266 kts 265°
2026-05-04 23:28 1.15565 104.32625 8806 ft 265 kts 265°
2026-05-04 23:28 1.15410 104.30780 8501 ft 264 kts 265°
2026-05-04 23:28 1.15256 104.28946 8199 ft 262 kts 265°
2026-05-04 23:29 1.15105 104.27138 7901 ft 261 kts 265°
2026-05-04 23:29 1.14953 104.25329 7602 ft 260 kts 265°
2026-05-04 23:29 1.14803 104.23543 7309 ft 259 kts 265°
2026-05-04 23:29 1.14653 104.21758 7014 ft 258 kts 266°
2026-05-04 23:30 1.14516 104.19974 6796 ft 253 kts 266°
2026-05-04 23:30 1.14395 104.18232 6664 ft 248 kts 266°
2026-05-04 23:30 1.14273 104.16515 6525 ft 249 kts 266°
2026-05-04 23:30 1.14150 104.14796 6375 ft 248 kts 266°
2026-05-04 23:31 1.14026 104.13064 6218 ft 246 kts 266°
2026-05-04 23:31 1.13905 104.11375 6066 ft 245 kts 266°
2026-05-04 23:31 1.13782 104.09666 5911 ft 245 kts 266°
2026-05-04 23:31 1.13658 104.07947 5757 ft 245 kts 266°
2026-05-04 23:32 1.13539 104.06279 5606 ft 240 kts 266°
2026-05-04 23:32 1.13421 104.04639 5457 ft 233 kts 266°
2026-05-04 23:32 1.13306 104.03038 5314 ft 226 kts 266°
2026-05-04 23:32 1.13195 104.01495 5176 ft 221 kts 266°
2026-05-04 23:33 1.13085 103.99965 5053 ft 215 kts 267°
2026-05-04 23:33 1.12884 103.98498 4908 ft 209 kts 260°
2026-05-04 23:33 1.12587 103.97101 4781 ft 208 kts 258°
2026-05-04 23:33 1.12277 103.95681 4649 ft 208 kts 258°
2026-05-04 23:34 1.11973 103.94274 4518 ft 207 kts 258°
2026-05-04 23:34 1.11669 103.92868 4389 ft 208 kts 258°
2026-05-04 23:34 1.11421 103.91446 4250 ft 207 kts 272°
2026-05-04 23:34 1.11853 103.90102 4103 ft 204 kts 308°
2026-05-04 23:35 1.12967 103.89239 3991 ft 202 kts 338°
2026-05-04 23:35 1.14331 103.89110 3969 ft 201 kts 14°
2026-05-04 23:35 1.15653 103.89634 3949 ft 206 kts 24°
2026-05-04 23:35 1.16965 103.90231 3681 ft 207 kts 24°
2026-05-04 23:36 1.18294 103.90807 3393 ft 207 kts 23°
2026-05-04 23:36 1.19609 103.91359 3137 ft 200 kts 22°
2026-05-04 23:36 1.20865 103.91879 2894 ft 193 kts 22°
2026-05-04 23:36 1.22091 103.92387 2660 ft 185 kts 22°
2026-05-04 23:37 1.23256 103.92873 2434 ft 176 kts 22°
2026-05-04 23:37 1.24336 103.93325 2220 ft 160 kts 23°
2026-05-04 23:37 1.25350 103.93750 2034 ft 154 kts 23°
2026-05-04 23:37 1.26332 103.94163 1837 ft 148 kts 23°
2026-05-04 23:38 1.27288 103.94563 1640 ft 149 kts 23°
2026-05-04 23:38 1.28252 103.94968 1439 ft 149 kts 23°
2026-05-04 23:38 1.29224 103.95376 1239 ft 148 kts 23°
2026-05-04 23:38 1.30177 103.95776 1041 ft 149 kts 23°
2026-05-04 23:39 1.31127 103.96173 844 ft 148 kts 23°
2026-05-04 23:39 1.32091 103.96565 584 ft 148 kts 23°
2026-05-04 23:39 1.33035 103.96970 440 ft 149 kts 23°
2026-05-04 23:39 1.33994 103.97366 250 ft 149 kts 22°
2026-05-04 23:40 1.34943 103.97763 70 ft 147 kts 23°
2026-05-04 23:40 1.35840 103.98143 35 ft 121 kts 24°
2026-05-04 23:40 1.36478 103.98412 35 ft 77 kts 23°
2026-05-04 23:40 1.36835 103.98563 35 ft 33 kts 23°
2026-05-04 23:41 1.37017 103.98668 35 ft 29 kts 45°
2026-05-04 23:41 1.37100 103.98772 35 ft 11 kts 59°
2026-05-04 23:41 1.37069 103.98834 35 ft 11 kts 146°
2026-05-04 23:41 1.37007 103.98882 35 ft 11 kts 125°
2026-05-04 23:42 1.36968 103.98953 35 ft 11 kts 111°
2026-05-04 23:42 1.36939 103.99028 35 ft 11 kts 111°
2026-05-04 23:42 1.36914 103.99091 35 ft 5 kts 112°
2026-05-04 23:42 1.36901 103.99104 35 ft 2 kts 158°
2026-05-04 23:43 1.36876 103.99103 35 ft 4 kts 194°
2026-05-04 23:43 1.36851 103.99096 35 ft 3 kts 202°
2026-05-04 23:43 1.36835 103.99089 35 ft 2 kts 202°
2026-05-04 23:43 1.36827 103.99086 35 ft 0 kts 202°
2026-05-04 23:44 1.36824 103.99084 35 ft 0 kts 202°